Preview of NWS' New Version of Forecast
This preview is not operational and should not be used for support decisions.

Regional Weather Roundup (RWR)

Issued by National Weather Service (NWS)

                            
000
ASUS45 KABQ 181410
RWRNM 
NEW MEXICO REGIONAL WEATHER ROUNDUP
NATIONAL WEATHER SERVICE ALBUQUERQUE NM
800 AM MDT SUN AUG 18 2019

NOTE: "FAIR" MEANS FEW OR NO CLOUDS BELOW 12,000 FEET AGL WITH NO
       SIGNIFICANT WEATHER OR OBSTRUCTIONS TO VISION.

      THIS PRODUCT IS RELEASED AS TWO VERSIONS.  ONE VERSION NEAR
      THE TOP OF THE HOUR CONTAINING PRELIMINARY DATA FROM ALBUQUERQUE
      AND OTHER STATIONS.  A FINAL VERSION WITH ADDITIONAL DATA IS 
      ISSUED ABOUT 10 MINUTES AFTER THE HOUR.
 
NMZ501-503-504-510>518-181500-
NORTHWEST PLATEAU/NORTHCENTRAL MOUNTAINS
  
CITY           SKY/WX    TMP DP  RH WIND       PRES   REMARKS
FARMINGTON     FAIR      60  27  28 E7        30.14R                  
LOS ALAMOS       N/A     64  28  24 N3        30.25R                  
SANTA FE       FAIR      63  33  32 N6        30.19R                  
TAOS             N/A     56  31  38 CALM      30.28R                  
ANGEL FIRE     FAIR      42  30  62 CALM      30.37R                  

$$
NMZ402-403-502-505>509-181500-
WESTCENTRAL MOUNTAINS/SOUTHWEST MOUNTAINS
  
CITY           SKY/WX    TMP DP  RH WIND       PRES   REMARKS
GALLUP         FAIR      62  34  35 CALM      30.23R                  
GRANTS         FAIR      63  38  39 CALM      30.24R                  
SILVER CITY    FAIR      70  41  34 NW9       30.15R                  

$$
NMZ407-409-411-412-181500-
SOUTHERN DESERTS
  
CITY           SKY/WX    TMP DP  RH WIND       PRES   REMARKS
DEMING         FAIR      69  41  36 VRB3      30.06R                  
LAS CRUCES     FAIR      72  37  28 NW5       30.06R                  
HOLLOMAN AFB   FAIR      69  45  41 NW6       30.02R                  
ALAMOGORDO     FAIR      72  39  30 CALM      30.02R                  
T OR C         FAIR      77  36  22 NW12      30.09R                  

$$
NMZ519>523-181500-
CENTRAL VALLEYS/CENTRAL HIGHLANDS
  
CITY           SKY/WX    TMP DP  RH WIND       PRES   REMARKS
ALBUQUERQUE    CLOUDY    71  36  27 CALM      30.13R                  
DOUBLE EAGLE   MOSUNNY   70  37  30 CALM      30.17                   
MORIARTY ARPT  FAIR      66  34  31 E3        30.19R                  
CLINES CORNERS FAIR      70  29  21 NW10      30.23R                  
BELEN          FAIR      76  33  21 NW5       30.12S                  
SOCORRO        FAIR      74  34  23 N5        30.10R                  

$$
NMZ524>526-539-540-181500-
SOUTHCENTRAL MOUNTAINS
  
CITY           SKY/WX    TMP DP  RH WIND       PRES   REMARKS
RUIDOSO        FAIR      72  32  23 NW9       30.23R                  

$$
NMZ527>531-181500-
NORTHEAST HIGHLANDS/NORTHEAST PLAINS
  
CITY           SKY/WX    TMP DP  RH WIND       PRES   REMARKS
LAS VEGAS      FAIR      62  32  32 CALM      30.20R                  
RATON          FAIR      58  43  57 NE8       30.14R                  
CLAYTON        FAIR      73  54  51 NW9       30.03R                  

$$
NMZ532>537-181500-
EASTCENTRAL PLAINS
  
CITY           SKY/WX    TMP DP  RH WIND       PRES   REMARKS
TUCUMCARI      FAIR      77  43  29 N6        29.96R                  
CANNON AFB     FAIR      74  55  51 SW3       30.00R                  
CLOVIS AIRPORT FAIR      75  58  55 W8        29.99R                  

$$
NMZ028-029-538-181500-
SOUTHEAST PLAINS
  
CITY           SKY/WX    TMP DP  RH WIND       PRES   REMARKS
ROSWELL        FAIR      76  47  35 NW3       29.94R                  
ARTESIA        FAIR      81  45  28 N5        29.96R                  
CARLSBAD       FAIR      79  57  46 CALM      29.90R                  
HOBBS          SUNNY     79  57  47 S13G21    29.94R                  


$$